Weather History for Riverside, CA

Change the Weather History Date:

Tuesday, June 17, 2014

  Actual Average Record
Temperature  
Mean Temperature 71 °F 72 °F  
Max Temperature 83 °F 85 °F 117 °F (1917)
Min Temperature 58 °F 60 °F 44 °F (1923)
Degree Days  
Heating Degree Days 0 0  
Month to date heating degree days 0 0  
Since 1 June heating degree days 0 0  
Since 1 July heating degree days 803 1444  
Cooling Degree Days 6 7  
Month to date cooling degree days 148 102  
Year to date cooling degree days 526 279  
Since 1 June cooling degree days 148 102  
Growing Degree Days 20 (Base 50)    
Moisture  
Dew Point 52 °F    
Average Humidity 54    
Maximum Humidity 80    
Minimum Humidity 28    
Precipitation  
Precipitation 0.00 in 0.01 in 0.45 in (1995)
Month to date precipitation 0.00 0.07  
Year to date precipitation 1.72 9.16  
Since 1 July precipitation 2.87 12.37  
Snow  
Snow 0.00 in - - ()
Month to date snowfall 0.0  
Year to date snowfall 0.0  
Since 1 July snowfall 0.0  
Snow Depth 0.00 in    
Sea Level Pressure  
Sea Level Pressure 29.86 in    
Wind  
Wind Speed 5 mph (WNW)    
Max Wind Speed 17 mph    
Max Gust Speed 25 mph    
Visibility 10 miles    
Events      
T = Trace of Precipitation, MM = Missing Value Source: NWS Daily Summary

Daily Weather History Graph

Daily Weather History Graph

Search for Another Location

Airport:

Trip Planner

Search our weather history database for the weather conditions in past years. The results will help you decide how hot, cold, wet, or windy it might be!

Date:

Astronomy

Jun. 17, 2014 Rise Set
Actual Time 5:38 AM PDT 8:03 PM PDT
Civil Twilight 5:09 AM PDT 8:32 PM PDT
Nautical Twilight 4:33 AM PDT 9:08 PM PDT
Astronomical Twilight 3:53 AM PDT 9:47 PM PDT
Moon 11:49 PM PDT (6/17) 10:45 AM PDT (6/17)
Length of Visible Light 15h 23m
Length of Day
14h 24m
Waning Gibbous, 72% of the Moon is Illuminated
Jun 17
Waning Gibbous
Jun 19
Last Quarter
Jun 27
New
Jul 5
First Quarter
Jul 12
Full

Hourly Weather History & Observations

Time (PDT) Temp. Dew Point Humidity Pressure Visibility Wind Dir Wind Speed Gust Speed Precip Events Conditions
12:53 AM 62.1 °F 53.1 °F 72% 29.86 in 10.0 mi Calm Calm - N/A   Clear
1:53 AM 61.0 °F 53.1 °F 75% 29.86 in 10.0 mi Calm Calm - N/A   Clear
2:53 AM 60.1 °F 54.0 °F 80% 29.86 in 10.0 mi NNW 3.5 mph - N/A   Clear
3:53 AM 60.1 °F 54.0 °F 80% 29.86 in 10.0 mi Calm Calm - N/A   Clear
4:53 AM 59.0 °F 54.0 °F 83% 29.86 in 10.0 mi Calm Calm - N/A   Clear
5:53 AM 59.0 °F 54.0 °F 83% 29.87 in 10.0 mi Calm Calm - N/A   Clear
6:53 AM 60.1 °F 54.0 °F 80% 29.89 in 10.0 mi Calm Calm - N/A   Clear
7:53 AM 63.0 °F 54.0 °F 72% 29.90 in 9.0 mi WSW 3.5 mph - N/A   Clear
8:53 AM 66.0 °F 54.0 °F 65% 29.91 in 10.0 mi West 3.5 mph - N/A   Clear
9:53 AM 69.1 °F 53.1 °F 57% 29.91 in 10.0 mi Variable 3.5 mph - N/A   Clear
10:53 AM 73.0 °F 48.9 °F 42% 29.90 in 10.0 mi Variable 4.6 mph - N/A   Clear
11:53 AM 78.1 °F 48.9 °F 36% 29.89 in 10.0 mi Variable 4.6 mph - N/A   Clear
12:53 PM 78.1 °F 50.0 °F 37% 29.87 in 10.0 mi West 3.5 mph - N/A   Clear
1:53 PM 82.0 °F 48.0 °F 30% 29.86 in 10.0 mi West 11.5 mph 18.4 mph N/A   Clear
2:53 PM 82.0 °F 48.0 °F 30% 29.84 in 10.0 mi WNW 9.2 mph 23.0 mph N/A   Clear
3:53 PM 82.9 °F 46.9 °F 28% 29.82 in 10.0 mi West 15.0 mph 20.7 mph N/A   Clear
4:53 PM 80.1 °F 48.9 °F 34% 29.82 in 10.0 mi West 15.0 mph 23.0 mph N/A   Clear
5:53 PM 75.0 °F 51.1 °F 43% 29.82 in 10.0 mi West 13.8 mph 23.0 mph N/A   Clear
6:53 PM 73.0 °F 53.1 °F 49% 29.83 in 10.0 mi WNW 10.4 mph 20.7 mph N/A   Clear
7:53 PM 69.1 °F 53.1 °F 57% 29.84 in 10.0 mi WNW 9.2 mph 16.1 mph N/A   Clear
8:53 PM 66.0 °F 53.1 °F 63% 29.86 in 10.0 mi Variable 6.9 mph - N/A   Clear
9:53 PM 64.0 °F 54.0 °F 70% 29.87 in 10.0 mi West 5.8 mph - N/A   Clear
10:53 PM 62.1 °F 54.0 °F 75% 29.88 in 10.0 mi Variable 3.5 mph - N/A   Clear
11:53 PM 61.0 °F 54.0 °F 78% 29.87 in 10.0 mi Calm Calm - N/A   Clear